Regional Weather Roundup
Issued by NWS Green Bay, WI

Home | Current Version | Previous Version | Text Only | Print | Product List | Glossary On
Versions: 1 2 3 4 5 6 7 8 9 10 11 12 13 14 15 16 17 18 19 20 21 22 23 24 25 26 27 28 29 30 31 32 33 34 35 36 37 38 39 40 41 42 43 44 45 46 47 48 49 50
000
ASUS43 KGRB 280211
RWRGRB

NORTH-CENTRAL AND NORTHEAST WISCONSIN REGIONAL WEATHER ROUNDUP
NATIONAL WEATHER SERVICE GREEN BAY WI
900 PM CDT SAT AUG 27 2016

WIZ005-009-010>012-018-019-280300-
NORTH CENTRAL WISCONSIN

CITY           SKY/WX    TMP DP  RH WIND       PRES   REMARKS
IRONWOOD       CLOUDY    61  60  97 SE3       30.04S
MANITOWISH WTR CLOUDY    61  61 100 CALM      30.06R
ARBOR VITAE    DRIZZLE   62  61  94 SW3       30.07R
EAGLE RIVER    RAIN      62  61  99 CALM      30.07R
LAND O LAKES   CLOUDY    62  61  96 CALM      30.08R
RHINELANDER    CLOUDY    63  62  97 CALM      30.07R
PHILLIPS       DRIZZLE   61  61 100 S3        30.06R
ANTIGO         CLOUDY    61  61  99 CALM      30.09R FOG
TOMAHAWK       DRIZZLE   61  60  95 CALM      30.08R
MERRILL        CLOUDY    63  63  99 CALM      30.08R FOG
$$

WIZ013-073-280300-
NORTHEAST WISCONSIN

CITY           SKY/WX    TMP DP  RH WIND       PRES   REMARKS
IRON MOUNTAIN  CLOUDY    63  58  83 SE3       30.04S
MARINETTE      MOCLDY   N/A N/A N/A CALM      30.05S
OCONTO         CLOUDY    64  62  93 CALM      30.04F
$$

WIZ017-030-035>037-045-280300-
CENTRAL WISCONSIN

CITY           SKY/WX    TMP DP  RH WIND       PRES   REMARKS
MEDFORD        DRIZZLE   62  62 100 S3        30.07R
WAUSAU         CLOUDY    63  61  93 S7        30.06R
MOSINEE        CLOUDY    63  63 100 SE3       30.08R
MARSHFIELD     CLOUDY    64  62  93 S3        30.07R FOG
WISC RAPIDS    CLOUDY    64  64 100 CALM      30.09R
STEVENS POINT  CLOUDY    62  61  97 S3        30.08R FOG
WAUPACA        CLOUDY    67  66  97 CALM      30.07R
SHAWANO        CLOUDY    66  62  89 CALM      30.06S
CLINTONVILLE   CLOUDY    64  61  88 CALM      30.06S
WAUTOMA        CLOUDY    64  64 100 SE3       30.07
$$

WIZ038-039-048-051-280300-
FOX VALLEY

CITY           SKY/WX    TMP DP  RH WIND       PRES   REMARKS
NWS GREEN BAY  CLOUDY    65  65 100 CALM      30.05S
APPLETON       CLOUDY    64  64 100 CALM      30.04S
OSHKOSH        MOCLDY    65  64  97 CALM      30.05S
FOND DU LAC    CLOUDY    66  65  96 CALM      30.06R
$$

WIZ022-050-052-280300-
EAST CENTRAL WISCONSIN

CITY           SKY/WX    TMP DP  RH WIND       PRES   REMARKS
EPHRAIM        CLOUDY    62  62 100 CALM      30.05R
WASHINGTON ISL NOT AVBL
STURGEON BAY   CLOUDY    64  63  96 CALM      30.06R
MANITOWOC      CLOUDY    64  62  93 CALM      30.07R FOG
SHEBOYGAN      FOG       65  63  93 CALM      30.07R VSB 3/4
$$

LMZ563-521-522-541>543-280300-
LAKESHORE

STATION/POSITION TIME  TEMP    WIND        PRES    VSBY  WAVE
                       AIR SEA DIR/SP/G                  HT/PER
                 (UTC) (F)     (DEG/KT/KT) (MB)    (MI)  (FT/S)
SHEBOYGAN LKSHOR 0200   61     350/  6/  6 1017.7R
KEWAUNEE LKSHORE 0100   64                 1017.1R
NORTHPORT PIER   0100   66      30/  5/  6 1016.9F
N MID LAKE BUOY  0150   67 70   70/  4/  4 1016.4S         1
S GREEN BAY BUOY 0100   65 71   80/  4/  6 1017.0
SISTER BAY LKSHO 0107   64      CALM  /  2   N/A
CHAMBERS ISLAND  0100   66      70/  3/  4 1016.9
MENOMINEE LKSHOR 0100   65                 1016.6F
$$




USA.gov is the U.S. government's official web portal to all federal, state and local government web resources and services.